| time (UTC) | temp C | wind direction | speed KPH | gust KPH | rain 1hr cm | rain 24hr cm | rain mn cm | humidity % | barometer mb |
| 20260510130721 | 20 | 354 | 0.0 | 0.0 | 0.00 | 2.44 | 0.33 | 91 | 1016.2 |
| 20260510130220 | 20 | 353 | 0.0 | 1.6 | 0.00 | 2.44 | 0.33 | 91 | 1016.2 |
| 20260510130040 | 20 | 295 | 0.0 | 1.6 | 0.00 | 2.44 | 0.33 | 92 | 1015.4 |
| 20260510125718 | 20 | 353 | 0.0 | 4.8 | 0.00 | 2.44 | 0.33 | 91 | 1016.1 |
| 20260510125222 | 20 | 353 | 1.6 | 4.8 | 0.00 | 2.44 | 0.33 | 91 | 1016.2 |
| 20260510124715 | 20 | 352 | 1.6 | 6.4 | 0.00 | 2.44 | 0.33 | 91 | 1016.2 |
| 20260510124539 | 20 | 294 | 1.6 | 6.4 | 0.00 | 2.44 | 0.33 | 92 | 1015.3 |
| 20260510124205 | 20 | 349 | 1.6 | 6.4 | 0.03 | 2.44 | 0.33 | 91 | 1016.1 |
| 20260510123659 | 20 | 347 | 0.0 | 3.2 | 0.15 | 2.44 | 0.33 | 91 | 1015.9 |
| 20260510123157 | 20 | 347 | 0.0 | 0.0 | 0.18 | 2.44 | 0.33 | 91 | 1015.9 |
| 20260510123033 | 20 | 289 | 0.0 | 0.0 | 0.18 | 2.44 | 0.33 | 92 | 1015.1 |
| 20260510122659 | 20 | 347 | 0.0 | 0.0 | 0.18 | 2.44 | 0.33 | 91 | 1015.8 |
| 20260510122155 | 20 | 347 | 0.0 | 0.0 | 0.18 | 2.44 | 0.33 | 91 | 1015.7 |
| 20260510121700 | 20 | 347 | 0.0 | 0.0 | 0.18 | 2.44 | 0.33 | 91 | 1015.6 |
| 20260510121528 | 20 | 289 | 0.0 | 0.0 | 0.18 | 2.44 | 0.33 | 92 | 1014.8 |
| 20260510121149 | 20 | 347 | 0.0 | 0.0 | 0.18 | 2.44 | 0.33 | 91 | 1015.6 |
| 20260510120649 | 20 | 347 | 0.0 | 0.0 | 0.18 | 2.44 | 0.33 | 91 | 1015.6 |
| 20260510120027 | 20 | 289 | 0.0 | 0.0 | 0.18 | 2.44 | 0.33 | 92 | 1014.7 |
| 20260510115150 | 20 | 347 | 0.0 | 0.0 | 0.20 | 2.44 | 0.33 | 90 | 1015.4 |
| 20260510114649 | 20 | 347 | 0.0 | 3.2 | 0.20 | 2.44 | 0.33 | 90 | 1015.3 |
| 20260510114527 | 20 | 289 | 0.0 | 3.2 | 0.20 | 2.44 | 0.33 | 91 | 1014.4 |
| 20260510114149 | 20 | 347 | 0.0 | 3.2 | 0.18 | 2.41 | 0.30 | 90 | 1015.2 |
| 20260510113651 | 20 | 347 | 0.0 | 0.0 | 0.05 | 2.29 | 0.25 | 90 | 1015.3 |
| 20260510113020 | 20 | 289 | 0.0 | 0.0 | 0.03 | 2.26 | 0.15 | 91 | 1014.5 |
| 20260510112637 | 20 | 347 | 0.0 | 0.0 | 0.03 | 2.26 | 0.15 | 90 | 1015.3 |
| 20260510112136 | 20 | 347 | 0.0 | 0.0 | 0.03 | 2.26 | 0.15 | 90 | 1015.1 |
| 20260510111636 | 20 | 347 | 0.0 | 1.6 | 0.03 | 2.26 | 0.15 | 90 | 1015.1 |
| 20260510111518 | 20 | 289 | 0.0 | 1.6 | 0.03 | 2.26 | 0.15 | 91 | 1014.3 |
| 20260510111124 | 20 | 347 | 0.0 | 3.2 | 0.03 | 2.26 | 0.15 | 90 | 1015.1 |
| 20260510110616 | 20 | 347 | 1.6 | 3.2 | 0.03 | 2.26 | 0.15 | 90 | 1015.1 |
| 20260510110115 | 20 | 347 | 1.6 | 4.8 | 0.03 | 2.26 | 0.15 | 90 | 1015.0 |
| 20260510110016 | 20 | 289 | 1.6 | 4.8 | 0.03 | 2.26 | 0.15 | 91 | 1014.2 |
| 20260510105614 | 20 | 347 | 3.2 | 6.4 | 0.00 | 2.24 | 0.13 | 90 | 1015.0 |
| 20260510105113 | 20 | 347 | 3.2 | 6.4 | 0.00 | 2.24 | 0.13 | 90 | 1014.9 |
| 20260510104611 | 20 | 347 | 3.2 | 6.4 | 0.00 | 2.24 | 0.13 | 90 | 1014.9 |
| 20260510104515 | 20 | 289 | 3.2 | 6.4 | 0.00 | 2.26 | 0.13 | 91 | 1014.0 |
| 20260510104114 | 20 | 347 | 3.2 | 6.4 | 0.00 | 2.24 | 0.13 | 90 | 1014.9 |
| 20260510103108 | 20 | 348 | 4.8 | 6.4 | 0.00 | 2.26 | 0.13 | 90 | 1014.8 |
| 20260510103015 | 20 | 290 | 3.2 | 6.4 | 0.00 | 2.26 | 0.13 | 91 | 1014.0 |
| 20260510102609 | 20 | 341 | 1.6 | 4.8 | 0.00 | 2.26 | 0.13 | 90 | 1014.8 |
| 20260510101607 | 20 | 346 | 0.0 | 0.0 | 0.00 | 2.26 | 0.13 | 90 | 1014.5 |
| 20260510101511 | 20 | 288 | 0.0 | 0.0 | 0.00 | 2.26 | 0.13 | 91 | 1013.8 |
| 20260510101108 | 20 | 346 | 0.0 | 0.0 | 0.00 | 2.26 | 0.13 | 90 | 1014.5 |
| 20260510100606 | 20 | 346 | 0.0 | 3.2 | 0.00 | 2.26 | 0.13 | 90 | 1014.4 |
| 20260510100100 | 20 | 346 | 0.0 | 3.2 | 0.00 | 2.26 | 0.13 | 90 | 1014.4 |
| 20260510100011 | 20 | 288 | 0.0 | 3.2 | 0.00 | 2.26 | 0.13 | 91 | 1013.6 |
| 20260510095548 | 20 | 346 | 0.0 | 1.6 | 0.00 | 2.26 | 0.13 | 90 | 1014.3 |
| 20260510094546 | 20 | 346 | 1.6 | 3.2 | 0.00 | 2.26 | 0.13 | 90 | 1014.1 |
| 20260510094526 | 20 | 288 | 0.0 | 3.2 | 0.00 | 2.26 | 0.13 | 91 | 1013.3 |
| 20260510094043 | 20 | 346 | 1.6 | 4.8 | 0.00 | 2.26 | 0.13 | 90 | 1014.2 |
| 20260510093542 | 20 | 346 | 1.6 | 4.8 | 0.00 | 2.26 | 0.13 | 90 | 1014.1 |
| 20260510093044 | 20 | 346 | 1.6 | 4.8 | 0.00 | 2.26 | 0.13 | 90 | 1014.1 |
| 20260510093011 | 20 | 288 | 0.0 | 4.8 | 0.00 | 2.26 | 0.13 | 91 | 1013.2 |
| 20260510092543 | 20 | 346 | 3.2 | 6.4 | 0.00 | 2.26 | 0.13 | 90 | 1014.1 |
| 20260510092040 | 20 | 345 | 3.2 | 6.4 | 0.00 | 2.26 | 0.13 | 90 | 1014.1 |
| 20260510091545 | 20 | 345 | 3.2 | 6.4 | 0.00 | 2.26 | 0.13 | 90 | 1014.1 |
| 20260510091509 | 20 | 290 | 1.6 | 4.8 | 0.00 | 2.26 | 0.13 | 91 | 1013.3 |
| 20260510091038 | 20 | 348 | 0.0 | 4.8 | 0.00 | 2.26 | 0.13 | 90 | 1014.1 |
| 20260510090539 | 20 | 349 | 0.0 | 0.0 | 0.00 | 2.26 | 0.13 | 90 | 1014.0 |
| 20260510090040 | 20 | 349 | 0.0 | 0.0 | 0.00 | 2.26 | 0.13 | 90 | 1013.9 |
| 20260510090010 | 20 | 291 | 0.0 | 0.0 | 0.00 | 2.26 | 0.13 | 91 | 1013.1 |
| 20260510085535 | 20 | 349 | 0.0 | 1.6 | 0.00 | 2.26 | 0.13 | 90 | 1013.9 |
| 20260510085039 | 20 | 349 | 0.0 | 1.6 | 0.00 | 2.26 | 0.13 | 89 | 1013.8 |
| 20260510084524 | 20 | 349 | 0.0 | 3.2 | 0.00 | 2.26 | 0.13 | 90 | 1013.8 |
| 20260510084517 | 20 | 291 | 0.0 | 3.2 | 0.00 | 2.26 | 0.13 | 91 | 1013.0 |
| 20260510084023 | 20 | 349 | 0.0 | 3.2 | 0.00 | 2.26 | 0.13 | 89 | 1013.9 |
| 20260510083511 | 20 | 349 | 0.0 | 1.6 | 0.00 | 2.26 | 0.13 | 89 | 1013.7 |
| 20260510083007 | 20 | 291 | 0.0 | 1.6 | 0.00 | 2.26 | 0.13 | 90 | 1013.0 |
| 20260510083000 | 20 | 349 | 0.0 | 1.6 | 0.00 | 2.26 | 0.13 | 89 | 1013.8 |
| 20260510082451 | 20 | 349 | 1.6 | 4.8 | 0.00 | 2.26 | 0.13 | 89 | 1013.6 |
| 20260510081935 | 20 | 349 | 1.6 | 4.8 | 0.03 | 2.26 | 0.13 | 90 | 1013.6 |
| 20260510081507 | 20 | 291 | 0.0 | 4.8 | 0.03 | 2.26 | 0.13 | 91 | 1012.8 |
| 20260510081423 | 20 | 351 | 1.6 | 4.8 | 0.03 | 2.26 | 0.13 | 90 | 1013.5 |
| 20260510080911 | 20 | 351 | 3.2 | 6.4 | 0.03 | 2.26 | 0.13 | 89 | 1013.5 |
| 20260510080402 | 20 | 344 | 3.2 | 6.4 | 0.03 | 2.26 | 0.13 | 89 | 1013.6 |
| 20260510080016 | 20 | 305 | 1.6 | 4.8 | 0.03 | 2.26 | 0.13 | 90 | 1012.8 |
| 20260510075851 | 20 | 5 | 1.6 | 3.2 | 0.03 | 2.26 | 0.13 | 89 | 1013.6 |
| 20260510075349 | 20 | 5 | 1.6 | 3.2 | 0.03 | 2.26 | 0.13 | 89 | 1013.4 |
| 20260510074849 | 20 | 3 | 1.6 | 4.8 | 0.03 | 2.26 | 0.13 | 89 | 1013.5 |
| 20260510074504 | 20 | 305 | 0.0 | 4.8 | 0.03 | 2.26 | 0.13 | 90 | 1012.8 |
| 20260510074342 | 20 | 2 | 1.6 | 4.8 | 0.03 | 2.26 | 0.13 | 89 | 1013.6 |
| 20260510073834 | 20 | 2 | 1.6 | 4.8 | 0.03 | 2.26 | 0.13 | 89 | 1013.5 |
| 20260510073337 | 20 | 12 | 1.6 | 3.2 | 0.03 | 2.26 | 0.13 | 89 | 1013.3 |
| 20260510073012 | 20 | 314 | 0.0 | 3.2 | 0.03 | 2.26 | 0.13 | 90 | 1012.0 |
| 20260510072831 | 20 | 14 | 1.6 | 4.8 | 0.03 | 2.26 | 0.13 | 89 | 1012.4 |
| 20260510072323 | 20 | 12 | 1.6 | 4.8 | 0.03 | 2.26 | 0.13 | 89 | 1013.3 |
| 20260510071822 | 20 | 12 | 1.6 | 3.2 | 0.00 | 2.24 | 0.10 | 89 | 1013.7 |
| 20260510071504 | 20 | 314 | 0.0 | 3.2 | 0.03 | 2.24 | 0.10 | 90 | 1012.9 |
| 20260510071323 | 20 | 12 | 1.6 | 3.2 | 0.05 | 2.24 | 0.10 | 89 | 1013.7 |
| 20260510070822 | 20 | 12 | 0.0 | 3.2 | 0.08 | 2.24 | 0.10 | 89 | 1013.5 |
| 20260510070320 | 20 | 12 | 0.0 | 3.2 | 0.08 | 2.24 | 0.10 | 89 | 1013.4 |
| 20260510070002 | 20 | 314 | 0.0 | 3.2 | 0.08 | 2.24 | 0.10 | 90 | 1012.4 |
| 20260510064817 | 20 | 12 | 1.6 | 4.8 | 0.08 | 2.24 | 0.10 | 89 | 1012.9 |
| 20260510064502 | 20 | 314 | 0.0 | 4.8 | 0.08 | 2.24 | 0.10 | 90 | 1012.1 |
| 20260510064319 | 20 | 12 | 1.6 | 4.8 | 0.08 | 2.24 | 0.10 | 89 | 1012.9 |
| 20260510063815 | 20 | 338 | 0.0 | 4.8 | 0.08 | 2.24 | 0.10 | 89 | 1013.1 |
| 20260510063316 | 20 | 338 | 0.0 | 0.0 | 0.08 | 2.24 | 0.10 | 89 | 1013.4 |
| 20260510063059 | 20 | 280 | 0.0 | 0.0 | 0.08 | 2.24 | 0.10 | 90 | 1012.7 |
| 20260510062816 | 20 | 338 | 0.0 | 0.0 | 0.08 | 2.24 | 0.10 | 89 | 1013.6 |
| 20260510062316 | 20 | 336 | 0.0 | 1.6 | 0.08 | 2.24 | 0.10 | 89 | 1013.6 |
| 20260510061826 | 20 | 336 | 0.0 | 1.6 | 0.08 | 2.24 | 0.10 | 89 | 1013.7 |
| 20260510061600 | 20 | 278 | 0.0 | 1.6 | 0.05 | 2.21 | 0.08 | 90 | 1013.0 |
| 20260510061318 | 20 | 336 | 0.0 | 1.6 | 0.03 | 2.18 | 0.05 | 89 | 1013.8 |
| 20260510060811 | 20 | 336 | 0.0 | 1.6 | 0.00 | 2.16 | 0.05 | 89 | 1013.9 |
| 20260510060303 | 20 | 336 | 0.0 | 1.6 | 0.00 | 2.16 | 0.03 | 89 | 1013.8 |
| 20260510060056 | 20 | 278 | 0.0 | 1.6 | 0.00 | 2.16 | 0.03 | 90 | 1013.0 |
| 20260510055758 | 20 | 336 | 0.0 | 1.6 | 0.00 | 2.16 | 0.03 | 89 | 1013.8 |
| 20260510055247 | 20 | 336 | 0.0 | 1.6 | 0.00 | 2.16 | 0.03 | 89 | 1013.8 |
| 20260510054738 | 20 | 336 | 0.0 | 1.6 | 0.00 | 2.16 | 0.03 | 89 | 1013.9 |
| 20260510054556 | 20 | 278 | 0.0 | 1.6 | 0.00 | 2.16 | 0.03 | 90 | 1013.0 |
| 20260510054234 | 20 | 336 | 0.0 | 3.2 | 0.03 | 2.16 | 0.03 | 89 | 1013.6 |
| 20260510053723 | 20 | 336 | 0.0 | 3.2 | 0.03 | 2.16 | 0.03 | 89 | 1013.7 |
| 20260510053215 | 20 | 336 | 0.0 | 0.0 | 0.03 | 2.16 | 0.03 | 89 | 1013.7 |
| 20260510053055 | 20 | 278 | 0.0 | 0.0 | 0.03 | 2.16 | 0.03 | 90 | 1012.9 |
| 20260510052707 | 20 | 336 | 0.0 | 0.0 | 0.03 | 2.16 | 0.03 | 89 | 1013.9 |
| 20260510052156 | 20 | 336 | 0.0 | 0.0 | 0.03 | 2.16 | 0.03 | 89 | 1014.0 |
| 20260510051653 | 20 | 336 | 0.0 | 0.0 | 0.03 | 2.16 | 0.03 | 89 | 1014.1 |
| 20260510051601 | 20 | 278 | 0.0 | 0.0 | 0.03 | 2.16 | 0.03 | 90 | 1013.2 |
| 20260510050655 | 20 | 336 | 0.0 | 1.6 | 0.03 | 2.16 | 0.03 | 89 | 1014.4 |
| 20260510050146 | 20 | 336 | 0.0 | 1.6 | 0.03 | 2.16 | 0.03 | 89 | 1014.5 |
| 20260510050052 | 20 | 278 | 0.0 | 1.6 | 0.03 | 2.16 | 0.03 | 90 | 1013.7 |
| 20260510045638 | 20 | 336 | 0.0 | 0.0 | 0.03 | 2.16 | 0.03 | 89 | 1014.6 |
| 20260510044633 | 20 | 336 | 0.0 | 0.0 | 0.00 | 2.13 | 0.00 | 89 | 1014.2 |
| 20260510044600 | 20 | 278 | 0.0 | 0.0 | 0.00 | 2.13 | 0.00 | 90 | 1013.4 |
| 20260510044133 | 20 | 336 | 0.0 | 0.0 | 0.00 | 2.13 | 0.00 | 89 | 1014.3 |
| 20260510043626 | 20 | 336 | 0.0 | 1.6 | 0.00 | 2.13 | 0.00 | 89 | 1014.2 |
| 20260510043114 | 20 | 336 | 0.0 | 1.6 | 0.03 | 2.13 | 0.00 | 89 | 1014.3 |
| 20260510043048 | 20 | 278 | 0.0 | 1.6 | 0.03 | 2.13 | 0.00 | 90 | 1013.5 |
| 20260510042609 | 20 | 336 | 0.0 | 3.2 | 0.03 | 2.13 | 0.00 | 89 | 1014.4 |
| 20260510041547 | 20 | 278 | 0.0 | 0.0 | 0.03 | 2.13 | 0.00 | 90 | 1013.4 |
| 20260510041103 | 20 | 336 | 0.0 | 0.0 | 0.03 | 2.13 | 0.00 | 89 | 1014.2 |
| 20260510040605 | 20 | 336 | 0.0 | 0.0 | 0.03 | 2.13 | 0.00 | 89 | 1014.2 |
| 20260510040050 | 20 | 278 | 0.0 | 0.0 | 0.03 | 2.13 | 0.00 | 90 | 1013.4 |
| 20260510035550 | 20 | 336 | 0.0 | 0.0 | 0.03 | 2.13 | 2.13 | 89 | 1014.2 |
| 20260510035050 | 20 | 336 | 0.0 | 0.0 | 0.03 | 2.13 | 2.13 | 89 | 1014.2 |
| 20260510034548 | 20 | 336 | 0.0 | 0.0 | 0.03 | 2.13 | 2.13 | 88 | 1014.2 |
| 20260510034545 | 20 | 278 | 0.0 | 0.0 | 0.03 | 2.13 | 2.13 | 89 | 1013.4 |
| 20260510033541 | 20 | 336 | 0.0 | 0.0 | 0.00 | 2.11 | 2.11 | 88 | 1014.2 |
| 20260510033044 | 20 | 278 | 0.0 | 0.0 | 0.00 | 2.11 | 2.11 | 89 | 1013.4 |
| 20260510032539 | 20 | 336 | 0.0 | 0.0 | 0.00 | 2.11 | 2.11 | 88 | 1014.4 |
| 20260510032033 | 20 | 336 | 0.0 | 1.6 | 0.00 | 2.11 | 2.11 | 88 | 1014.3 |
| 20260510031544 | 20 | 278 | 0.0 | 3.2 | 0.00 | 2.11 | 2.11 | 89 | 1013.3 |
| 20260510031534 | 20 | 336 | 1.6 | 3.2 | 0.00 | 2.11 | 2.11 | 88 | 1014.1 |
| 20260510031035 | 20 | 336 | 1.6 | 3.2 | 0.00 | 2.11 | 2.11 | 88 | 1014.1 |
| 20260510030532 | 20 | 336 | 0.0 | 0.0 | 0.00 | 2.11 | 2.11 | 88 | 1014.0 |
| 20260510030052 | 20 | 278 | 0.0 | 0.0 | 0.00 | 2.11 | 2.11 | 89 | 1013.2 |
| 20260510030032 | 20 | 336 | 0.0 | 0.0 | 0.00 | 2.11 | 2.11 | 88 | 1014.0 |
| 20260510025532 | 20 | 336 | 0.0 | 0.0 | 0.00 | 2.11 | 2.11 | 88 | 1013.9 |
| 20260510024543 | 20 | 278 | 0.0 | 0.0 | 0.00 | 2.11 | 2.11 | 89 | 1012.9 |
| 20260510024530 | 20 | 336 | 0.0 | 0.0 | 0.00 | 2.11 | 2.11 | 88 | 1013.7 |
| 20260510024033 | 20 | 336 | 0.0 | 0.0 | 0.00 | 2.11 | 2.11 | 88 | 1013.7 |
| 20260510023527 | 20 | 336 | 0.0 | 0.0 | 0.00 | 2.11 | 2.11 | 88 | 1013.7 |
| 20260510023042 | 20 | 278 | 0.0 | 1.6 | 0.00 | 2.11 | 2.11 | 89 | 1012.8 |
| 20260510023027 | 20 | 336 | 0.0 | 4.8 | 0.00 | 2.11 | 2.11 | 88 | 1013.6 |
| 20260510022025 | 20 | 336 | 1.6 | 4.8 | 0.00 | 2.11 | 2.11 | 88 | 1013.6 |
| 20260510021543 | 20 | 277 | 0.0 | 3.2 | 0.00 | 2.11 | 2.11 | 89 | 1012.7 |
| 20260510021525 | 20 | 335 | 0.0 | 3.2 | 0.00 | 2.11 | 2.11 | 88 | 1013.5 |
| 20260510020526 | 20 | 335 | 1.6 | 3.2 | 0.00 | 2.11 | 2.11 | 88 | 1013.4 |
| 20260510020044 | 20 | 276 | 0.0 | 3.2 | 0.00 | 2.11 | 2.11 | 89 | 1012.5 |
| 20260510020025 | 20 | 334 | 0.0 | 3.2 | 0.00 | 2.11 | 2.11 | 88 | 1013.4 |
| 20260510015529 | 20 | 334 | 0.0 | 3.2 | 0.00 | 2.13 | 2.11 | 88 | 1013.5 |
| 20260510015020 | 20 | 334 | 0.0 | 0.0 | 0.00 | 2.16 | 2.11 | 88 | 1013.6 |
| 20260510014541 | 20 | 276 | 0.0 | 0.0 | 0.00 | 2.24 | 2.11 | 89 | 1012.6 |
| 20260510014512 | 20 | 334 | 0.0 | 0.0 | 0.00 | 2.18 | 2.11 | 88 | 1013.4 |
| 20260510014003 | 20 | 334 | 0.0 | 3.2 | 0.00 | 2.21 | 2.11 | 88 | 1013.4 |
| 20260510013040 | 20 | 276 | 0.0 | 0.0 | 0.00 | 2.24 | 2.11 | 89 | 1012.7 |
| 20260510013001 | 20 | 334 | 0.0 | 0.0 | 0.00 | 2.24 | 2.11 | 88 | 1013.5 |
| 20260510012503 | 21 | 334 | 0.0 | 0.0 | 0.00 | 2.24 | 2.11 | 88 | 1013.4 |
| 20260510012005 | 21 | 334 | 0.0 | 0.0 | 0.00 | 2.24 | 2.11 | 88 | 1013.3 |
| 20260510011546 | 20 | 276 | 0.0 | 0.0 | 0.00 | 2.24 | 2.11 | 89 | 1012.5 |
| 20260510011457 | 21 | 334 | 0.0 | 1.6 | 0.03 | 2.24 | 2.11 | 88 | 1013.2 |
| 20260510010950 | 21 | 334 | 0.0 | 1.6 | 0.03 | 2.24 | 2.11 | 88 | 1013.2 |
| 20260510010454 | 21 | 334 | 0.0 | 1.6 | 0.05 | 2.24 | 2.11 | 88 | 1013.1 |
| 20260510010040 | 20 | 276 | 0.0 | 1.6 | 0.05 | 2.24 | 2.11 | 89 | 1012.4 |
| 20260510005944 | 21 | 334 | 0.0 | 1.6 | 0.05 | 2.24 | 2.11 | 88 | 1013.2 |
| 20260510005433 | 21 | 334 | 0.0 | 0.0 | 0.08 | 2.24 | 2.11 | 88 | 1013.2 |
| 20260510004921 | 21 | 334 | 0.0 | 3.2 | 0.08 | 2.24 | 2.11 | 88 | 1013.2 |
| 20260510004539 | 21 | 276 | 0.0 | 3.2 | 0.08 | 2.24 | 2.11 | 89 | 1012.3 |
| 20260510004415 | 21 | 334 | 1.6 | 4.8 | 0.08 | 2.24 | 2.11 | 88 | 1013.2 |
| 20260510003915 | 21 | 334 | 1.6 | 4.8 | 0.08 | 2.24 | 2.11 | 88 | 1013.1 |
| 20260510003416 | 21 | 145 | 0.0 | 3.2 | 0.08 | 2.24 | 2.11 | 88 | 1012.8 |
| 20260510003042 | 21 | 87 | 0.0 | 3.2 | 0.08 | 2.24 | 2.11 | 89 | 1012.1 |
| 20260510002913 | 21 | 145 | 0.0 | 3.2 | 0.08 | 2.24 | 2.11 | 88 | 1013.0 |
| 20260510002429 | 21 | 145 | 0.0 | 3.2 | 0.08 | 2.24 | 2.11 | 88 | 1013.0 |
| 20260510001538 | 21 | 87 | 0.0 | 3.2 | 0.08 | 2.24 | 2.11 | 89 | 1012.0 |
| 20260510001401 | 21 | 145 | 0.0 | 3.2 | 0.05 | 2.21 | 2.08 | 88 | 1012.8 |
| 20260510000915 | 21 | 145 | 0.0 | 1.6 | 0.05 | 2.21 | 2.08 | 88 | 1012.9 |
| 20260510000042 | 21 | 87 | 0.0 | 4.8 | 0.03 | 2.18 | 2.06 | 89 | 1012.1 |
| 20260509235348 | 21 | 144 | 1.6 | 4.8 | 0.00 | 2.16 | 2.03 | 88 | 1013.0 |
| 20260509234839 | 21 | 164 | 0.0 | 4.8 | 0.00 | 2.16 | 2.03 | 87 | 1013.4 |
| 20260509234541 | 21 | 106 | 1.6 | 4.8 | 0.00 | 2.16 | 2.03 | 89 | 1012.4 |
| 20260509234333 | 21 | 201 | 0.0 | 0.0 | 0.00 | 2.16 | 2.03 | 87 | 1013.1 |
| 20260509233822 | 21 | 201 | 0.0 | 0.0 | 0.00 | 2.16 | 2.03 | 87 | 1012.8 |
| 20260509233038 | 21 | 143 | 0.0 | 3.2 | 0.00 | 2.16 | 2.03 | 88 | 1011.7 |
| 20260509232809 | 21 | 201 | 0.0 | 4.8 | 0.00 | 2.16 | 2.03 | 87 | 1012.6 |
| 20260509232259 | 21 | 201 | 1.6 | 4.8 | 0.00 | 2.16 | 2.03 | 87 | 1012.6 |
| 20260509231758 | 21 | 207 | 1.6 | 4.8 | 0.00 | 2.16 | 2.03 | 87 | 1012.6 |
| 20260509231541 | 21 | 149 | 0.0 | 4.8 | 0.00 | 2.16 | 2.03 | 88 | 1011.9 |
| 20260509231300 | 21 | 207 | 1.6 | 4.8 | 0.00 | 2.16 | 2.03 | 87 | 1012.8 |
| 20260509230756 | 21 | 210 | 1.6 | 4.8 | 0.00 | 2.16 | 2.03 | 87 | 1012.6 |
| 20260509230257 | 21 | 222 | 0.0 | 0.0 | 0.00 | 2.16 | 2.03 | 87 | 1012.5 |
| 20260509230035 | 21 | 167 | 0.0 | 0.0 | 0.00 | 2.16 | 2.03 | 88 | 1011.8 |
| 20260509225757 | 21 | 225 | 0.0 | 3.2 | 0.00 | 2.16 | 2.03 | 87 | 1012.6 |
| 20260509224534 | 21 | 164 | 0.0 | 1.6 | 0.00 | 2.16 | 2.03 | 88 | 1011.3 |
| 20260509224237 | 21 | 222 | 0.0 | 3.2 | 0.00 | 2.16 | 2.03 | 87 | 1012.3 |
| 20260509223732 | 21 | 222 | 0.0 | 3.2 | 0.00 | 2.16 | 2.03 | 87 | 1012.1 |
| 20260509223035 | 21 | 164 | 0.0 | 4.8 | 0.00 | 2.16 | 2.03 | 88 | 1011.2 |
| 20260509222715 | 21 | 222 | 0.0 | 4.8 | 0.00 | 2.16 | 2.03 | 87 | 1012.2 |
| 20260509222214 | 21 | 225 | 0.0 | 0.0 | 0.00 | 2.16 | 2.03 | 87 | 1012.1 |
| 20260509221716 | 21 | 225 | 0.0 | 1.6 | 0.00 | 2.16 | 2.03 | 87 | 1012.1 |
| 20260509221533 | 21 | 167 | 0.0 | 1.6 | 0.00 | 2.16 | 2.03 | 88 | 1011.5 |
| 20260509221209 | 21 | 225 | 0.0 | 1.6 | 0.00 | 2.16 | 2.03 | 87 | 1012.4 |
| 20260509220657 | 21 | 225 | 0.0 | 1.6 | 0.00 | 2.16 | 2.03 | 87 | 1012.4 |
| 20260509220149 | 21 | 225 | 0.0 | 1.6 | 0.00 | 2.16 | 2.03 | 87 | 1012.5 |
| 20260509220031 | 21 | 167 | 0.0 | 1.6 | 0.00 | 2.16 | 2.03 | 88 | 1011.7 |
| 20260509215646 | 21 | 225 | 0.0 | 0.0 | 0.00 | 2.16 | 2.03 | 87 | 1012.5 |
| 20260509215148 | 21 | 225 | 0.0 | 1.6 | 0.00 | 2.16 | 2.03 | 87 | 1012.5 |
| 20260509214649 | 21 | 225 | 1.6 | 6.4 | 0.00 | 2.16 | 2.03 | 87 | 1012.3 |
| 20260509214529 | 21 | 167 | 0.0 | 8.0 | 0.00 | 2.16 | 2.03 | 88 | 1011.4 |
| 20260509214150 | 21 | 224 | 1.6 | 6.4 | 0.00 | 2.16 | 2.03 | 87 | 1012.1 |
| 20260509213649 | 21 | 207 | 1.6 | 4.8 | 0.00 | 2.16 | 2.03 | 87 | 1012.0 |
| 20260509213150 | 21 | 199 | 0.0 | 3.2 | 0.00 | 2.16 | 2.03 | 87 | 1012.0 |
| 20260509213030 | 21 | 137 | 0.0 | 3.2 | 0.00 | 2.16 | 2.03 | 88 | 1011.2 |
| 20260509212650 | 21 | 195 | 1.6 | 6.4 | 0.00 | 2.16 | 2.03 | 87 | 1012.1 |
| 20260509211642 | 21 | 190 | 3.2 | 8.0 | 0.03 | 2.16 | 2.03 | 87 | 1012.1 |
| 20260509211529 | 21 | 133 | 1.6 | 8.0 | 0.03 | 2.16 | 2.03 | 88 | 1011.4 |
| 20260509211129 | 21 | 208 | 3.2 | 8.0 | 0.03 | 2.16 | 2.03 | 87 | 1012.4 |
| 20260509210622 | 21 | 195 | 1.6 | 6.4 | 0.03 | 2.16 | 2.03 | 87 | 1012.5 |
| 20260509210124 | 21 | 93 | 1.6 | 4.8 | 0.03 | 2.16 | 2.03 | 87 | 1012.5 |
| 20260509210029 | 21 | 35 | 0.0 | 4.8 | 0.03 | 2.16 | 2.03 | 88 | 1011.6 |
| 20260509205114 | 21 | 211 | 3.2 | 4.8 | 0.05 | 2.16 | 2.03 | 87 | 1012.5 |
| 20260509204528 | 21 | 156 | 1.6 | 6.4 | 0.08 | 2.16 | 2.03 | 87 | 1011.8 |
| 20260509204114 | 21 | 257 | 0.0 | 6.4 | 0.08 | 2.16 | 2.03 | 87 | 1012.6 |
| 20260509203612 | 21 | 313 | 0.0 | 3.2 | 0.10 | 2.16 | 2.03 | 87 | 1012.6 |
| 20260509203115 | 21 | 313 | 0.0 | 3.2 | 0.10 | 2.16 | 2.03 | 86 | 1012.7 |
| 20260509203037 | 21 | 255 | 0.0 | 3.2 | 0.13 | 2.16 | 2.03 | 87 | 1011.8 |
| 20260509202609 | 21 | 334 | 0.0 | 1.6 | 0.13 | 2.16 | 2.03 | 86 | 1012.8 |
| 20260509202059 | 21 | 334 | 0.0 | 1.6 | 0.13 | 2.16 | 2.03 | 86 | 1012.9 |
| 20260509201552 | 21 | 336 | 0.0 | 4.8 | 0.10 | 2.13 | 2.01 | 86 | 1012.9 |
| 20260509201528 | 21 | 278 | 0.0 | 1.6 | 0.10 | 2.13 | 2.01 | 87 | 1012.1 |
| 20260509201050 | 21 | 336 | 0.0 | 4.8 | 0.10 | 2.13 | 2.01 | 86 | 1013.0 |
| 20260509200027 | 21 | 278 | 0.0 | 6.4 | 0.10 | 2.13 | 2.01 | 87 | 1012.3 |
| 20260509195049 | 21 | 331 | 0.0 | 1.6 | 0.08 | 2.11 | 1.98 | 86 | 1013.2 |
| 20260509194546 | 21 | 331 | 0.0 | 1.6 | 0.05 | 2.08 | 1.96 | 86 | 1013.3 |
| 20260509194528 | 21 | 273 | 0.0 | 1.6 | 0.05 | 2.08 | 1.96 | 87 | 1012.5 |
| 20260509194045 | 21 | 331 | 0.0 | 1.6 | 0.05 | 2.08 | 1.96 | 86 | 1013.4 |
| 20260509193547 | 21 | 331 | 0.0 | 3.2 | 0.03 | 2.06 | 1.93 | 86 | 1013.4 |
| 20260509193046 | 21 | 331 | 1.6 | 4.8 | 0.00 | 2.03 | 1.91 | 86 | 1013.4 |
| 20260509193026 | 21 | 273 | 0.0 | 4.8 | 0.00 | 2.03 | 1.91 | 87 | 1012.6 |
| 20260509192543 | 21 | 330 | 3.2 | 9.7 | 0.03 | 2.03 | 1.91 | 86 | 1013.5 |
| 20260509192047 | 21 | 338 | 1.6 | 9.7 | 0.03 | 2.03 | 1.91 | 86 | 1013.4 |
| 20260509191542 | 21 | 353 | 1.6 | 4.8 | 0.03 | 2.03 | 1.91 | 85 | 1013.3 |
| 20260509191525 | 21 | 295 | 0.0 | 4.8 | 0.03 | 2.03 | 1.91 | 86 | 1012.4 |
| 20260509191041 | 21 | 353 | 3.2 | 8.0 | 0.03 | 2.03 | 1.91 | 85 | 1013.2 |
| 20260509190542 | 21 | 358 | 4.8 | 9.7 | 0.08 | 2.03 | 1.91 | 85 | 1013.0 |
| 20260509190039 | 21 | 355 | 4.8 | 9.7 | 0.20 | 2.03 | 1.91 | 85 | 1013.0 |
| 20260509190027 | 21 | 296 | 3.2 | 11.3 | 0.15 | 2.03 | 1.91 | 86 | 1012.2 |
| 20260509185533 | 21 | 3 | 4.8 | 11.3 | 0.41 | 2.03 | 1.91 | 85 | 1013.0 |
| 20260509185023 | 21 | 330 | 8.0 | 16.1 | 1.19 | 2.03 | 1.91 | 85 | 1012.9 |
| 20260509184525 | 21 | 299 | 6.4 | 17.7 | 1.75 | 2.03 | 1.91 | 86 | 1012.2 |
| 20260509184026 | 21 | 299 | 4.8 | 11.3 | 1.80 | 2.03 | 1.91 | 84 | 1013.0 |
| 20260509183024 | 21 | 307 | 1.6 | 12.9 | 1.83 | 2.03 | 1.91 | 85 | 1012.2 |
| 20260509182513 | 21 | 357 | 8.0 | 14.5 | 1.85 | 2.01 | 1.88 | 84 | 1013.1 |
| 20260509182014 | 21 | 333 | 8.0 | 19.3 | 1.85 | 2.01 | 1.88 | 84 | 1013.2 |
| 20260509181524 | 21 | 295 | 9.7 | 20.9 | 1.85 | 2.01 | 1.88 | 84 | 1012.2 |
| 20260509181509 | 22 | 3 | 8.0 | 19.3 | 1.85 | 2.01 | 1.88 | 83 | 1013.1 |
| 20260509181010 | 22 | 310 | 9.7 | 17.7 | 1.83 | 1.98 | 1.85 | 83 | 1013.0 |
| 20260509180503 | 22 | 341 | 11.3 | 20.9 | 1.80 | 1.96 | 1.83 | 82 | 1013.0 |
| 20260509180024 | 22 | 301 | 12.9 | 29.0 | 1.70 | 1.85 | 1.73 | 82 | 1012.1 |
| 20260509175955 | 22 | 349 | 14.5 | 27.4 | 1.63 | 1.78 | 1.70 | 81 | 1013.0 |
| 20260509175457 | 23 | 351 | 16.1 | 27.4 | 1.32 | 1.47 | 1.45 | 80 | 1013.1 |
| 20260509174956 | 23 | 349 | 11.3 | 27.4 | 0.41 | 0.56 | 0.64 | 78 | 1012.9 |
| 20260509174502 | 24 | 315 | 12.9 | 20.9 | 0.10 | 0.25 | 0.13 | 78 | 1011.9 |
| 20260509174500 | 24 | 15 | 8.0 | 19.3 | 0.10 | 0.25 | 0.13 | 77 | 1012.7 |
| 20260509173955 | 25 | 48 | 6.4 | 14.5 | 0.08 | 0.23 | 0.10 | 75 | 1012.6 |
| 20260509173455 | 26 | 359 | 6.4 | 14.5 | 0.08 | 0.23 | 0.10 | 74 | 1012.6 |
| 20260509173001 | 26 | 316 | 4.8 | 12.9 | 0.03 | 0.18 | 0.05 | 73 | 1011.8 |
| 20260509172956 | 26 | 4 | 4.8 | 11.3 | 0.00 | 0.15 | 0.05 | 72 | 1012.7 |
| 20260509171503 | 27 | 277 | 1.6 | 8.0 | 0.00 | 0.15 | 0.03 | 71 | 1012.0 |
| 20260509171437 | 27 | 336 | 3.2 | 11.3 | 0.00 | 0.15 | 0.03 | 70 | 1012.9 |
| 20260509170940 | 27 | 340 | 3.2 | 11.3 | 0.00 | 0.15 | 0.03 | 69 | 1012.9 |
| 20260509170435 | 27 | 349 | 1.6 | 6.4 | 0.00 | 0.15 | 0.03 | 70 | 1012.9 |
| 20260509170001 | 27 | 130 | 0.0 | 4.8 | 0.00 | 0.15 | 0.03 | 71 | 1012.0 |
| 20260509165935 | 27 | 188 | 3.2 | 4.8 | 0.00 | 0.15 | 0.03 | 70 | 1012.8 |
| 20260509164932 | 27 | 120 | 3.2 | 9.7 | 0.00 | 0.15 | 0.03 | 69 | 1012.9 |
| 20260509164606 | 27 | 295 | 4.8 | 9.7 | 0.00 | 0.15 | 0.03 | 69 | 1012.1 |
| 20260509164425 | 27 | 2 | 3.2 | 8.0 | 0.00 | 0.15 | 0.03 | 69 | 1012.9 |
| 20260509163922 | 28 | 353 | 3.2 | 8.0 | 0.00 | 0.15 | 0.03 | 69 | 1013.0 |
| 20260509163427 | 27 | 210 | 3.2 | 11.3 | 0.00 | 0.15 | 0.03 | 69 | 1013.1 |
| 20260509163058 | 27 | 287 | 3.2 | 12.9 | 0.00 | 0.15 | 0.03 | 70 | 1012.3 |
| 20260509162421 | 27 | 182 | 1.6 | 6.4 | 0.00 | 0.15 | 0.03 | 70 | 1013.2 |
| 20260509161922 | 27 | 203 | 3.2 | 9.7 | 0.00 | 0.15 | 0.03 | 70 | 1013.3 |
| 20260509161557 | 27 | 150 | 1.6 | 9.7 | 0.00 | 0.15 | 0.03 | 72 | 1012.4 |
| 20260509161419 | 27 | 351 | 3.2 | 9.7 | 0.00 | 0.15 | 0.03 | 70 | 1013.2 |
| 20260509160918 | 27 | 202 | 3.2 | 8.0 | 0.00 | 0.15 | 0.03 | 70 | 1013.0 |
| 20260509160420 | 27 | 178 | 4.8 | 12.9 | 0.00 | 0.15 | 0.03 | 72 | 1012.8 |
| 20260509160052 | 26 | 148 | 6.4 | 12.9 | 0.00 | 0.15 | 0.03 | 73 | 1012.0 |
| 20260509155919 | 26 | 247 | 3.2 | 12.9 | 0.00 | 0.15 | 0.03 | 73 | 1012.9 |
| 20260509155417 | 26 | 244 | 1.6 | 11.3 | 0.00 | 0.15 | 0.03 | 75 | 1012.9 |
| 20260509154548 | 25 | 176 | 1.6 | 8.0 | 0.00 | 0.15 | 0.03 | 79 | 1012.2 |
| 20260509154414 | 25 | 334 | 3.2 | 9.7 | 0.00 | 0.15 | 0.03 | 78 | 1013.1 |
| 20260509153914 | 24 | 338 | 4.8 | 12.9 | 0.00 | 0.15 | 0.03 | 79 | 1013.3 |
| 20260509153415 | 24 | 282 | 3.2 | 12.9 | 0.00 | 0.15 | 0.03 | 80 | 1013.2 |
| 20260509153058 | 23 | 305 | 3.2 | 11.3 | 0.00 | 0.15 | 0.03 | 82 | 1012.4 |
| 20260509152912 | 24 | 352 | 3.2 | 6.4 | 0.00 | 0.15 | 0.03 | 82 | 1013.3 |
| 20260509152412 | 23 | 41 | 3.2 | 8.0 | 0.00 | 0.15 | 0.03 | 84 | 1013.4 |
| 20260509151543 | 22 | 301 | 1.6 | 6.4 | 0.00 | 0.15 | 0.03 | 86 | 1012.7 |
| 20260509151412 | 23 | 358 | 3.2 | 6.4 | 0.00 | 0.15 | 0.03 | 85 | 1013.6 |
| 20260509150902 | 22 | 338 | 1.6 | 6.4 | 0.00 | 0.15 | 0.03 | 86 | 1013.5 |
| 20260509150036 | 22 | 293 | 1.6 | 4.8 | 0.00 | 0.15 | 0.03 | 88 | 1012.8 |
| 20260509145846 | 22 | 350 | 1.6 | 4.8 | 0.00 | 0.15 | 0.03 | 88 | 1013.7 |
| 20260509145345 | 22 | 345 | 1.6 | 6.4 | 0.00 | 0.15 | 0.03 | 88 | 1013.8 |
| 20260509144844 | 21 | 346 | 1.6 | 6.4 | 0.00 | 0.15 | 0.03 | 88 | 1014.0 |
| 20260509144533 | 21 | 285 | 1.6 | 6.4 | 0.00 | 0.15 | 0.03 | 89 | 1013.2 |
| 20260509144348 | 21 | 344 | 0.0 | 4.8 | 0.00 | 0.15 | 0.03 | 88 | 1014.0 |
| 20260509143839 | 21 | 343 | 1.6 | 4.8 | 0.00 | 0.15 | 0.03 | 88 | 1014.0 |
| 20260509143327 | 21 | 343 | 1.6 | 6.4 | 0.00 | 0.15 | 0.03 | 88 | 1014.2 |
| 20260509143031 | 21 | 284 | 0.0 | 6.4 | 0.00 | 0.15 | 0.03 | 89 | 1013.5 |
| 20260509142822 | 21 | 341 | 1.6 | 6.4 | 0.00 | 0.15 | 0.03 | 88 | 1014.4 |
| 20260509142322 | 21 | 348 | 1.6 | 4.8 | 0.00 | 0.15 | 0.03 | 88 | 1014.2 |
| 20260509141531 | 21 | 290 | 0.0 | 1.6 | 0.00 | 0.15 | 0.03 | 90 | 1013.1 |
| 20260509141309 | 21 | 348 | 0.0 | 1.6 | 0.00 | 0.15 | 0.03 | 89 | 1013.9 |
| 20260509140810 | 21 | 348 | 0.0 | 0.0 | 0.00 | 0.15 | 0.03 | 89 | 1014.0 |
| 20260509140308 | 21 | 348 | 0.0 | 4.8 | 0.00 | 0.15 | 0.03 | 89 | 1013.9 |
| 20260509140026 | 21 | 290 | 0.0 | 4.8 | 0.00 | 0.15 | 0.03 | 90 | 1013.1 |
| 20260509135755 | 21 | 348 | 1.6 | 6.4 | 0.00 | 0.15 | 0.03 | 89 | 1013.9 |
| 20260509135250 | 21 | 347 | 3.2 | 6.4 | 0.00 | 0.15 | 0.03 | 89 | 1013.9 |
| 20260509134746 | 21 | 346 | 3.2 | 6.4 | 0.00 | 0.15 | 0.03 | 89 | 1013.9 |
| 20260509134526 | 21 | 291 | 3.2 | 6.4 | 0.00 | 0.15 | 0.03 | 90 | 1013.0 |
| 20260509134247 | 21 | 347 | 3.2 | 6.4 | 0.00 | 0.15 | 0.03 | 89 | 1013.7 |
| 20260509133741 | 21 | 345 | 3.2 | 4.8 | 0.00 | 0.15 | 0.03 | 89 | 1013.7 |
| 20260509133232 | 21 | 346 | 3.2 | 4.8 | 0.00 | 0.15 | 0.03 | 89 | 1013.6 |
| 20260509133024 | 21 | 287 | 1.6 | 4.8 | 0.00 | 0.15 | 0.03 | 90 | 1012.9 |
| 20260509131745 | 21 | 345 | 1.6 | 4.8 | 0.00 | 0.15 | 0.03 | 89 | 1013.6 |
| 20260509131522 | 21 | 287 | 1.6 | 4.8 | 0.00 | 0.15 | 0.03 | 90 | 1012.8 |
| 20260509131219 | 21 | 349 | 0.0 | 4.8 | 0.00 | 0.15 | 0.03 | 89 | 1013.5 |